Time,TemperatureF,DewpointF,PressureIn,WindDirection,WindDirectionDegrees,WindSpeedMPH,WindSpeedGustMPH,Humidity,HourlyPrecipIn,Conditions,Clouds,dailyrainin,SoftwareType,DateUTC
2013-09-20 00:01:00,72.9,62.9,29.79,ENE,68,2.0,3.1,71,0.00,,---,0.00,VWS V14.01,2013-09-20 04:01:00,
2013-09-20 00:02:00,73.2,63.3,29.79,East,90,2.7,2.7,71,0.00,,---,0.00,VWS V14.01,2013-09-20 04:02:00,
2013-09-20 00:07:00,73.2,63.3,29.79,ENE,68,0.0,0.0,71,0.00,,---,0.00,VWS V14.01,2013-09-20 04:07:00,
2013-09-20 00:12:00,73.0,63.1,29.79,East,90,0.0,0.0,71,0.00,,---,0.00,VWS V14.01,2013-09-20 04:12:00,
2013-09-20 00:17:00,72.7,62.7,29.79,East,90,0.0,0.0,71,0.00,,---,0.00,VWS V14.01,2013-09-20 04:17:00,
2013-09-20 00:22:00,72.7,62.7,29.79,NE,45,1.1,1.6,71,0.00,,---,0.00,VWS V14.01,2013-09-20 04:22:00,
2013-09-20 00:27:00,72.5,62.6,29.79,NE,45,0.0,0.0,71,0.00,,---,0.00,VWS V14.01,2013-09-20 04:27:00,
2013-09-20 00:32:00,72.5,62.6,29.79,East,90,0.0,0.0,71,0.00,,---,0.00,VWS V14.01,2013-09-20 04:32:00,
2013-09-20 00:37:00,72.1,62.6,29.79,East,90,0.0,0.9,72,0.00,,---,0.00,VWS V14.01,2013-09-20 04:37:00,
2013-09-20 00:42:00,72.0,62.5,29.79,East,90,0.0,0.0,72,0.00,,---,0.00,VWS V14.01,2013-09-20 04:42:00,
2013-09-20 00:47:00,72.0,62.8,29.79,ENE,68,0.0,0.0,73,0.00,,---,0.00,VWS V14.01,2013-09-20 04:47:00,
2013-09-20 00:52:00,71.8,62.7,29.79,ENE,68,0.0,0.0,73,0.00,,---,0.00,VWS V14.01,2013-09-20 04:52:00,
2013-09-20 00:57:00,71.6,62.9,29.76,ENE,68,0.0,0.0,74,0.00,,---,0.00,VWS V14.01,2013-09-20 04:57:00,
2013-09-20 01:02:00,71.4,63.1,29.76,ENE,68,0.0,0.0,75,0.00,,---,0.00,VWS V14.01,2013-09-20 05:02:00,
2013-09-20 01:07:00,71.2,62.9,29.76,ENE,68,0.0,0.0,75,0.00,,---,0.00,VWS V14.01,2013-09-20 05:07:00,
2013-09-20 01:12:00,71.2,62.9,29.79,ENE,68,0.0,0.0,75,0.00,,---,0.00,VWS V14.01,2013-09-20 05:12:00,
2013-09-20 01:17:00,71.2,63.3,29.79,ENE,68,0.0,0.0,76,0.00,,---,0.00,VWS V14.01,2013-09-20 05:17:00,
2013-09-20 01:22:00,71.1,63.1,29.79,ENE,68,0.0,0.0,76,0.00,,---,0.00,VWS V14.01,2013-09-20 05:22:00,
2013-09-20 01:27:00,70.9,63.3,29.79,ENE,68,0.0,0.0,77,0.00,,---,0.00,VWS V14.01,2013-09-20 05:27:00,
2013-09-20 01:32:00,70.9,63.3,29.79,ENE,68,0.0,0.0,77,0.00,,---,0.00,VWS V14.01,2013-09-20 05:32:00,
2013-09-20 01:37:00,70.7,63.1,29.79,ENE,68,0.0,0.0,77,0.00,,---,0.00,VWS V14.01,2013-09-20 05:37:00,
2013-09-20 01:42:00,70.7,63.5,29.79,ENE,68,0.0,0.0,78,0.00,,---,0.00,VWS V14.01,2013-09-20 05:42:00,
2013-09-20 01:47:00,70.5,63.3,29.79,ENE,68,0.0,0.0,78,0.00,,---,0.00,VWS V14.01,2013-09-20 05:47:00,
2013-09-20 01:52:00,70.3,63.2,29.79,ENE,68,0.0,0.0,78,0.00,,---,0.00,VWS V14.01,2013-09-20 05:52:00,
2013-09-20 01:57:00,70.2,63.3,29.76,ENE,68,0.0,0.0,79,0.00,,---,0.00,VWS V14.01,2013-09-20 05:57:00,
2013-09-20 02:02:00,70.2,63.3,29.76,ENE,68,0.0,0.0,79,0.00,,---,0.00,VWS V14.01,2013-09-20 06:02:00,
2013-09-20 02:07:00,70.2,63.3,29.76,ENE,68,0.0,0.0,79,0.00,,---,0.00,VWS V14.01,2013-09-20 06:07:00,
2013-09-20 02:12:00,70.2,63.7,29.76,ENE,68,0.0,0.0,80,0.00,,---,0.00,VWS V14.01,2013-09-20 06:12:00,
2013-09-20 02:17:00,70.0,63.5,29.76,ENE,68,0.0,0.0,80,0.00,,---,0.00,VWS V14.01,2013-09-20 06:17:00,
2013-09-20 02:22:00,70.0,63.5,29.76,ENE,68,0.0,0.0,80,0.00,,---,0.00,VWS V14.01,2013-09-20 06:22:00,
2013-09-20 02:27:00,70.0,63.5,29.76,ENE,68,0.0,0.0,80,0.00,,---,0.00,VWS V14.01,2013-09-20 06:27:00,
2013-09-20 02:32:00,69.8,63.7,29.76,ENE,68,0.0,0.0,81,0.00,,---,0.00,VWS V14.01,2013-09-20 06:32:00,
2013-09-20 02:37:00,69.6,63.9,29.76,ENE,68,0.0,0.0,82,0.00,,---,0.00,VWS V14.01,2013-09-20 06:37:00,
2013-09-20 02:42:00,69.6,63.9,29.76,ENE,68,0.0,0.0,82,0.00,,---,0.00,VWS V14.01,2013-09-20 06:42:00,
2013-09-20 02:47:00,69.6,63.9,29.76,ENE,68,0.0,0.0,82,0.00,,---,0.00,VWS V14.01,2013-09-20 06:47:00,
2013-09-20 02:52:00,69.6,63.9,29.76,ENE,68,0.0,0.0,82,0.00,,---,0.00,VWS V14.01,2013-09-20 06:52:00,
2013-09-20 02:57:00,69.6,64.2,29.76,ENE,68,0.0,0.0,83,0.00,,---,0.00,VWS V14.01,2013-09-20 06:57:00,
2013-09-20 03:02:00,69.4,64.1,29.76,ENE,68,0.0,0.0,83,0.00,,---,0.00,VWS V14.01,2013-09-20 07:02:00,
2013-09-20 03:07:00,69.4,64.1,29.76,ENE,68,0.0,0.0,83,0.00,,---,0.00,VWS V14.01,2013-09-20 07:07:00,
2013-09-20 03:12:00,69.4,64.1,29.76,ENE,68,0.0,0.0,83,0.00,,---,0.00,VWS V14.01,2013-09-20 07:12:00,
2013-09-20 03:18:00,69.4,64.1,29.76,ENE,68,0.0,0.0,83,0.00,,---,0.00,VWS V14.01,2013-09-20 07:18:00,
2013-09-20 03:22:00,69.3,64.2,29.76,ENE,68,0.0,0.0,84,0.00,,---,0.00,VWS V14.01,2013-09-20 07:22:00,
2013-09-20 03:28:00,69.3,64.2,29.76,ENE,68,0.0,0.0,84,0.00,,---,0.00,VWS V14.01,2013-09-20 07:28:00,
2013-09-20 03:33:00,69.3,64.2,29.76,ENE,68,0.0,0.0,84,0.00,,---,0.00,VWS V14.01,2013-09-20 07:33:00,
2013-09-20 03:38:00,69.1,64.1,29.76,ENE,68,0.0,0.0,84,0.00,,---,0.00,VWS V14.01,2013-09-20 07:38:00,
2013-09-20 03:43:00,69.1,64.4,29.76,ENE,68,0.0,0.0,85,0.00,,---,0.00,VWS V14.01,2013-09-20 07:43:00,
2013-09-20 03:48:00,69.1,64.4,29.76,ENE,68,0.0,0.0,85,0.00,,---,0.00,VWS V14.01,2013-09-20 07:48:00,
2013-09-20 03:53:00,69.1,64.4,29.76,ENE,68,0.0,0.0,85,0.00,,---,0.00,VWS V14.01,2013-09-20 07:53:00,
2013-09-20 03:58:00,68.9,64.2,29.76,ENE,68,0.0,0.0,85,0.00,,---,0.00,VWS V14.01,2013-09-20 07:58:00,
2013-09-20 04:03:00,68.9,64.6,29.76,ENE,68,0.0,0.0,86,0.00,,---,0.00,VWS V14.01,2013-09-20 08:03:00,
2013-09-20 04:08:00,68.9,64.6,29.76,ENE,68,0.0,0.0,86,0.00,,---,0.00,VWS V14.01,2013-09-20 08:08:00,
2013-09-20 04:13:00,68.7,64.4,29.76,ENE,68,0.0,0.0,86,0.00,,---,0.00,VWS V14.01,2013-09-20 08:13:00,
2013-09-20 04:18:00,68.7,64.4,29.76,ENE,68,0.0,0.0,86,0.00,,---,0.00,VWS V14.01,2013-09-20 08:18:00,
2013-09-20 04:23:00,68.7,64.7,29.76,ENE,68,0.0,0.0,87,0.00,,---,0.00,VWS V14.01,2013-09-20 08:23:00,
2013-09-20 04:28:00,68.7,64.7,29.76,ENE,68,0.0,0.0,87,0.00,,---,0.00,VWS V14.01,2013-09-20 08:28:00,
2013-09-20 04:33:00,68.7,64.7,29.76,ENE,68,0.0,0.0,87,0.00,,---,0.00,VWS V14.01,2013-09-20 08:33:00,
2013-09-20 04:38:00,68.7,64.7,29.76,ENE,68,0.0,0.0,87,0.00,,---,0.00,VWS V14.01,2013-09-20 08:38:00,
2013-09-20 04:43:00,68.7,64.7,29.76,ENE,68,0.0,0.0,87,0.00,,---,0.00,VWS V14.01,2013-09-20 08:43:00,
2013-09-20 04:48:00,68.7,64.7,29.76,ENE,68,0.0,0.0,87,0.00,,---,0.00,VWS V14.01,2013-09-20 08:48:00,
2013-09-20 04:53:00,68.7,64.7,29.76,ENE,68,0.0,0.0,87,0.00,,---,0.00,VWS V14.01,2013-09-20 08:53:00,
2013-09-20 04:58:00,68.7,64.7,29.76,ENE,68,0.0,0.0,87,0.00,,---,0.00,VWS V14.01,2013-09-20 08:58:00,
2013-09-20 05:03:00,68.7,65.0,29.76,ENE,68,0.0,0.0,88,0.00,,---,0.00,VWS V14.01,2013-09-20 09:03:00,
2013-09-20 05:08:00,68.7,65.0,29.76,ENE,68,0.0,0.0,88,0.00,,---,0.00,VWS V14.01,2013-09-20 09:08:00,
2013-09-20 05:13:00,68.5,64.8,29.76,ENE,68,0.0,0.0,88,0.00,,---,0.00,VWS V14.01,2013-09-20 09:13:00,
2013-09-20 05:18:00,68.5,64.8,29.76,ENE,68,0.0,0.0,88,0.00,,---,0.00,VWS V14.01,2013-09-20 09:18:00,
2013-09-20 05:23:00,68.5,65.2,29.76,ENE,68,0.0,0.0,89,0.00,,---,0.00,VWS V14.01,2013-09-20 09:23:00,
2013-09-20 05:28:00,68.5,65.2,29.76,ENE,68,0.0,0.0,89,0.00,,---,0.00,VWS V14.01,2013-09-20 09:28:00,
2013-09-20 05:33:00,68.5,65.2,29.76,ENE,68,0.0,0.0,89,0.00,,---,0.00,VWS V14.01,2013-09-20 09:33:00,
2013-09-20 05:38:00,68.5,65.2,29.76,ENE,68,0.0,0.0,89,0.00,,---,0.00,VWS V14.01,2013-09-20 09:38:00,
2013-09-20 05:43:00,68.5,65.2,29.76,ENE,68,0.0,0.0,89,0.00,,---,0.00,VWS V14.01,2013-09-20 09:43:00,
2013-09-20 05:48:00,68.5,65.2,29.76,ENE,68,0.0,0.0,89,0.00,,---,0.00,VWS V14.01,2013-09-20 09:48:00,
2013-09-20 05:53:00,68.5,65.2,29.76,ENE,68,0.0,0.0,89,0.00,,---,0.00,VWS V14.01,2013-09-20 09:53:00,
2013-09-20 05:58:00,68.5,65.2,29.76,ENE,68,0.0,0.0,89,0.00,,---,0.00,VWS V14.01,2013-09-20 09:58:00,
2013-09-20 06:03:00,68.5,65.2,29.76,ENE,68,0.0,0.0,89,0.00,,---,0.00,VWS V14.01,2013-09-20 10:03:00,
2013-09-20 06:08:00,68.5,65.5,29.76,ENE,68,0.0,0.0,90,0.00,,---,0.00,VWS V14.01,2013-09-20 10:08:00,
2013-09-20 06:13:00,68.5,65.5,29.76,ENE,68,0.0,0.0,90,0.00,,---,0.00,VWS V14.01,2013-09-20 10:13:00,
2013-09-20 06:18:00,68.5,65.5,29.76,ENE,68,0.0,0.0,90,0.00,,---,0.00,VWS V14.01,2013-09-20 10:18:00,
2013-09-20 06:23:00,68.5,65.5,29.76,ENE,68,0.0,0.0,90,0.00,,---,0.00,VWS V14.01,2013-09-20 10:23:00,
2013-09-20 06:28:00,68.5,65.5,29.76,ENE,68,0.0,0.0,90,0.00,,---,0.00,VWS V14.01,2013-09-20 10:28:00,
2013-09-20 06:33:00,68.5,65.5,29.76,ENE,68,0.0,0.0,90,0.00,,---,0.00,VWS V14.01,2013-09-20 10:33:00,
2013-09-20 06:38:00,68.5,65.5,29.76,ENE,68,0.0,0.0,90,0.00,,---,0.00,VWS V14.01,2013-09-20 10:38:00,
2013-09-20 06:43:00,68.5,65.5,29.76,ENE,68,0.0,0.0,90,0.00,,---,0.00,VWS V14.01,2013-09-20 10:43:00,
2013-09-20 06:49:00,68.5,65.5,29.76,ENE,68,0.0,0.0,90,0.00,,---,0.00,VWS V14.01,2013-09-20 10:49:00,
2013-09-20 06:54:00,68.4,65.3,29.76,ENE,68,0.0,0.0,90,0.00,,---,0.00,VWS V14.01,2013-09-20 10:54:00,
2013-09-20 06:59:00,68.4,65.6,29.76,ENE,68,0.0,0.0,91,0.00,,---,0.00,VWS V14.01,2013-09-20 10:59:00,
2013-09-20 07:04:00,68.4,65.6,29.76,ENE,68,0.0,0.0,91,0.00,,---,0.00,VWS V14.01,2013-09-20 11:04:00,
2013-09-20 07:09:00,68.4,65.6,29.76,ENE,68,0.0,0.0,91,0.00,,---,0.00,VWS V14.01,2013-09-20 11:09:00,
2013-09-20 07:14:00,68.2,65.5,29.76,ENE,68,0.0,0.0,91,0.00,,---,0.00,VWS V14.01,2013-09-20 11:14:00,
2013-09-20 07:19:00,68.2,65.5,29.76,ENE,68,0.0,0.0,91,0.00,,---,0.00,VWS V14.01,2013-09-20 11:19:00,
2013-09-20 07:24:00,68.4,65.6,29.76,ENE,68,0.0,0.0,91,0.00,,---,0.00,VWS V14.01,2013-09-20 11:24:00,
2013-09-20 07:29:00,68.5,65.8,29.76,ENE,68,0.0,0.0,91,0.00,,---,0.00,VWS V14.01,2013-09-20 11:29:00,
2013-09-20 07:34:00,68.5,65.8,29.76,ENE,68,0.0,0.0,91,0.00,,---,0.00,VWS V14.01,2013-09-20 11:34:00,
2013-09-20 07:39:00,68.5,65.8,29.76,ENE,68,0.0,0.0,91,0.00,,---,0.00,VWS V14.01,2013-09-20 11:39:00,
2013-09-20 07:44:00,68.7,66.0,29.76,ENE,68,0.0,0.0,91,0.00,,---,0.00,VWS V14.01,2013-09-20 11:44:00,
2013-09-20 07:49:00,68.7,66.0,29.76,ENE,68,0.0,0.0,91,0.00,,---,0.00,VWS V14.01,2013-09-20 11:49:00,
2013-09-20 07:54:00,69.3,66.8,29.76,ENE,68,0.0,0.0,92,0.00,,---,0.00,VWS V14.01,2013-09-20 11:54:00,
2013-09-20 07:59:00,69.4,67.0,29.76,ENE,68,0.0,0.0,92,0.00,,---,0.00,VWS V14.01,2013-09-20 11:59:00,
2013-09-20 08:04:00,69.4,67.0,29.76,NW,315,0.0,0.0,92,0.00,,---,0.00,VWS V14.01,2013-09-20 12:04:00,
2013-09-20 08:09:00,70.0,67.6,29.76,NW,315,1.3,1.3,92,0.00,,---,0.00,VWS V14.01,2013-09-20 12:09:00,
2013-09-20 08:14:00,70.3,67.9,29.79,NNW,338,0.0,1.6,92,0.00,,---,0.00,VWS V14.01,2013-09-20 12:14:00,
2013-09-20 08:19:00,70.9,68.4,29.79,North,0,2.0,2.0,92,0.00,,---,0.00,VWS V14.01,2013-09-20 12:19:00,
2013-09-20 08:24:00,71.2,69.1,29.79,NE,45,0.0,1.6,93,0.00,,---,0.00,VWS V14.01,2013-09-20 12:24:00,
2013-09-20 08:29:00,71.2,69.1,29.79,ENE,68,1.1,3.4,93,0.00,,---,0.00,VWS V14.01,2013-09-20 12:29:00,
2013-09-20 08:34:00,72.3,69.9,29.79,NW,315,2.5,3.1,92,0.00,,---,0.00,VWS V14.01,2013-09-20 12:34:00,
2013-09-20 08:39:00,72.5,70.1,29.79,NW,315,3.1,3.1,92,0.00,,---,0.00,VWS V14.01,2013-09-20 12:39:00,
2013-09-20 08:44:00,73.4,70.3,29.79,NW,315,0.0,1.3,90,0.00,,---,0.00,VWS V14.01,2013-09-20 12:44:00,
2013-09-20 08:49:00,73.9,70.2,29.79,NW,315,1.6,3.6,88,0.00,,---,0.00,VWS V14.01,2013-09-20 12:49:00,
2013-09-20 08:54:00,74.5,69.3,29.79,NNE,22,3.1,3.4,84,0.00,,---,0.00,VWS V14.01,2013-09-20 12:54:00,
2013-09-20 08:59:00,75.0,68.4,29.79,NNE,22,3.6,3.6,80,0.00,,---,0.00,VWS V14.01,2013-09-20 12:59:00,
2013-09-20 09:04:00,75.4,68.1,29.79,NNE,22,1.3,2.0,78,0.00,,---,0.00,VWS V14.01,2013-09-20 13:04:00,
2013-09-20 09:09:00,75.4,68.1,29.79,NW,315,2.0,2.5,78,0.00,,---,0.00,VWS V14.01,2013-09-20 13:09:00,
2013-09-20 09:14:00,76.6,67.3,29.79,NE,45,2.5,2.5,73,0.00,,---,0.00,VWS V14.01,2013-09-20 13:14:00,
2013-09-20 09:19:00,77.2,65.8,29.79,NE,45,2.2,2.2,68,0.00,,---,0.00,VWS V14.01,2013-09-20 13:19:00,
2013-09-20 09:24:00,77.7,66.3,29.79,NNE,22,1.6,1.6,68,0.00,,---,0.00,VWS V14.01,2013-09-20 13:24:00,
2013-09-20 09:29:00,78.3,65.5,29.79,WNW,292,1.6,2.0,65,0.00,,---,0.00,VWS V14.01,2013-09-20 13:29:00,
2013-09-20 09:34:00,79.7,65.1,29.79,ENE,68,3.4,3.4,61,0.00,,---,0.00,VWS V14.01,2013-09-20 13:34:00,
2013-09-20 09:39:00,80.4,65.8,29.79,NW,315,5.6,5.6,61,0.00,,---,0.00,VWS V14.01,2013-09-20 13:39:00,
2013-09-20 09:44:00,81.7,65.5,29.79,NE,45,1.3,3.1,58,0.00,,---,0.00,VWS V14.01,2013-09-20 13:44:00,
2013-09-20 09:49:00,84.7,66.8,29.79,NNE,22,2.5,2.5,55,0.00,,---,0.00,VWS V14.01,2013-09-20 13:49:00,
2013-09-20 09:54:00,85.5,68.0,29.79,North,0,3.4,3.4,56,0.00,,---,0.00,VWS V14.01,2013-09-20 13:54:00,
2013-09-20 09:59:00,87.8,67.4,29.79,North,0,2.5,2.5,51,0.00,,---,0.00,VWS V14.01,2013-09-20 13:59:00,
2013-09-20 10:04:00,89.4,66.6,29.79,North,0,3.6,3.6,47,0.00,,---,0.00,VWS V14.01,2013-09-20 14:04:00,
2013-09-20 10:09:00,90.0,63.1,29.79,NNE,22,3.6,3.6,41,0.00,,---,0.00,VWS V14.01,2013-09-20 14:09:00,
2013-09-20 10:14:00,91.0,64.1,29.79,NW,315,3.6,3.6,41,0.00,,---,0.00,VWS V14.01,2013-09-20 14:14:00,
2013-09-20 10:20:00,91.2,62.1,29.79,East,90,1.6,6.3,38,0.00,,---,0.00,VWS V14.01,2013-09-20 14:20:00,
2013-09-20 10:25:00,92.1,63.6,29.79,ENE,68,4.3,5.4,39,0.00,,---,0.00,VWS V14.01,2013-09-20 14:25:00,
2013-09-20 10:30:00,92.5,62.4,29.79,ENE,68,1.1,3.6,37,0.00,,---,0.00,VWS V14.01,2013-09-20 14:30:00,
2013-09-20 10:35:00,92.5,61.7,29.79,NE,45,7.2,7.2,36,0.00,,---,0.00,VWS V14.01,2013-09-20 14:35:00,
2013-09-20 10:40:00,92.3,60.7,29.79,North,0,3.1,3.1,35,0.00,,---,0.00,VWS V14.01,2013-09-20 14:40:00,
2013-09-20 10:45:00,92.7,61.8,29.79,East,90,3.1,6.0,36,0.00,,---,0.00,VWS V14.01,2013-09-20 14:45:00,
2013-09-20 10:50:00,92.7,60.2,29.79,ENE,68,3.1,3.1,34,0.00,,---,0.00,VWS V14.01,2013-09-20 14:50:00,
2013-09-20 10:55:00,92.7,60.2,29.79,NNW,338,5.4,5.4,34,0.00,,---,0.00,VWS V14.01,2013-09-20 14:55:00,
2013-09-20 11:00:00,93.4,60.0,29.79,NE,45,3.8,5.6,33,0.00,,---,0.00,VWS V14.01,2013-09-20 15:00:00,
2013-09-20 11:05:00,93.9,60.5,29.79,WNW,292,4.5,4.5,33,0.00,,---,0.00,VWS V14.01,2013-09-20 15:05:00,
2013-09-20 11:10:00,93.9,60.5,29.76,NW,315,4.3,4.3,33,0.00,,---,0.00,VWS V14.01,2013-09-20 15:10:00,
2013-09-20 11:15:00,94.3,61.6,29.76,NE,45,2.5,8.7,34,0.00,,---,0.00,VWS V14.01,2013-09-20 15:15:00,
2013-09-20 11:20:00,94.6,61.1,29.76,ENE,68,6.0,6.0,33,0.00,,---,0.00,VWS V14.01,2013-09-20 15:20:00,
2013-09-20 11:25:00,93.9,59.6,29.76,NE,45,4.3,4.3,32,0.00,,---,0.00,VWS V14.01,2013-09-20 15:25:00,
2013-09-20 11:30:00,94.6,61.1,29.76,North,0,3.1,6.0,33,0.00,,---,0.00,VWS V14.01,2013-09-20 15:30:00,
2013-09-20 11:35:00,94.6,61.1,29.76,NE,45,5.6,5.6,33,0.00,,---,0.00,VWS V14.01,2013-09-20 15:35:00,
2013-09-20 11:40:00,95.4,59.0,29.76,NE,45,6.5,7.4,30,0.00,,---,0.00,VWS V14.01,2013-09-20 15:40:00,
2013-09-20 11:45:00,95.4,59.0,29.76,ENE,68,2.0,3.1,30,0.00,,---,0.00,VWS V14.01,2013-09-20 15:45:00,
2013-09-20 11:50:00,95.2,59.8,29.76,ESE,112,3.6,4.9,31,0.00,,---,0.00,VWS V14.01,2013-09-20 15:50:00,
2013-09-20 11:55:00,95.0,58.7,29.76,North,0,4.7,4.7,30,0.00,,---,0.00,VWS V14.01,2013-09-20 15:55:00,
2013-09-20 12:00:00,95.9,59.5,29.76,NW,315,3.1,3.1,30,0.00,,---,0.00,VWS V14.01,2013-09-20 16:00:00,
2013-09-20 12:05:00,95.5,60.1,29.76,East,90,4.9,4.9,31,0.00,,---,0.00,VWS V14.01,2013-09-20 16:05:00,
2013-09-20 12:10:00,93.7,59.5,29.76,NE,45,3.6,5.6,32,0.00,,---,0.00,VWS V14.01,2013-09-20 16:10:00,
2013-09-20 12:15:00,93.0,59.7,29.76,East,90,3.6,3.6,33,0.00,,---,0.00,VWS V14.01,2013-09-20 16:15:00,
2013-09-20 12:20:00,90.3,58.2,29.76,East,90,4.9,4.9,34,0.00,,---,0.00,VWS V14.01,2013-09-20 16:20:00,
2013-09-20 12:25:00,89.6,57.5,29.76,East,90,4.3,4.3,34,0.00,,---,0.00,VWS V14.01,2013-09-20 16:25:00,
2013-09-20 12:30:00,88.5,57.4,29.76,East,90,3.4,3.4,35,0.00,,---,0.00,VWS V14.01,2013-09-20 16:30:00,
2013-09-20 12:35:00,88.5,59.0,29.76,NE,45,2.5,2.5,37,0.00,,---,0.00,VWS V14.01,2013-09-20 16:35:00,
2013-09-20 12:40:00,90.7,60.9,29.76,North,0,3.4,5.6,37,0.00,,---,0.00,VWS V14.01,2013-09-20 16:40:00,
2013-09-20 12:45:00,92.3,62.3,29.76,SE,135,3.1,4.0,37,0.00,,---,0.00,VWS V14.01,2013-09-20 16:45:00,
2013-09-20 12:50:00,92.3,62.3,29.76,East,90,4.3,4.3,37,0.00,,---,0.00,VWS V14.01,2013-09-20 16:50:00,
2013-09-20 12:55:00,91.6,60.1,29.74,ESE,112,2.7,2.7,35,0.00,,---,0.00,VWS V14.01,2013-09-20 16:55:00,
2013-09-20 13:00:00,91.6,60.1,29.74,ESE,112,2.9,2.9,35,0.00,,---,0.00,VWS V14.01,2013-09-20 17:00:00,
2013-09-20 13:05:00,93.0,60.5,29.74,SE,135,2.7,2.7,34,0.00,,---,0.00,VWS V14.01,2013-09-20 17:05:00,
2013-09-20 13:11:00,93.0,60.5,29.74,SSE,158,1.6,1.6,34,0.00,,---,0.00,VWS V14.01,2013-09-20 17:11:00,
2013-09-20 13:16:00,91.8,58.6,29.74,SE,135,2.5,2.7,33,0.00,,---,0.00,VWS V14.01,2013-09-20 17:16:00,
2013-09-20 13:21:00,93.7,60.3,29.74,NNE,22,1.6,1.6,33,0.00,,---,0.00,VWS V14.01,2013-09-20 17:21:00,
2013-09-20 13:26:00,93.7,61.2,29.74,ESE,112,2.7,2.7,34,0.00,,---,0.00,VWS V14.01,2013-09-20 17:26:00,
2013-09-20 13:31:00,93.7,61.2,29.74,North,0,4.0,5.8,34,0.00,,---,0.00,VWS V14.01,2013-09-20 17:31:00,
2013-09-20 13:36:00,93.7,61.2,29.74,NW,315,3.4,5.6,34,0.00,,---,0.00,VWS V14.01,2013-09-20 17:36:00,
2013-09-20 13:41:00,93.7,61.2,29.74,NNW,338,5.8,5.8,34,0.00,,---,0.00,VWS V14.01,2013-09-20 17:41:00,
2013-09-20 13:46:00,93.7,61.2,29.74,East,90,3.1,3.8,34,0.00,,---,0.00,VWS V14.01,2013-09-20 17:46:00,
2013-09-20 13:51:00,93.7,61.2,29.74,SE,135,4.5,4.5,34,0.00,,---,0.00,VWS V14.01,2013-09-20 17:51:00,
2013-09-20 13:56:00,93.0,59.7,29.74,NE,45,3.4,5.6,33,0.00,,---,0.00,VWS V14.01,2013-09-20 17:56:00,
2013-09-20 14:01:00,94.5,60.1,29.74,ESE,112,6.3,6.3,32,0.00,,---,0.00,VWS V14.01,2013-09-20 18:01:00,
2013-09-20 14:06:00,94.5,60.1,29.74,ENE,68,3.6,4.3,32,0.00,,---,0.00,VWS V14.01,2013-09-20 18:06:00,
2013-09-20 14:11:00,94.5,60.1,29.74,NNW,338,4.7,4.7,32,0.00,,---,0.00,VWS V14.01,2013-09-20 18:11:00,
2013-09-20 14:16:00,94.5,60.1,29.74,North,0,4.0,4.5,32,0.00,,---,0.00,VWS V14.01,2013-09-20 18:16:00,
2013-09-20 14:21:00,94.5,60.1,29.74,NE,45,4.9,4.9,32,0.00,,---,0.00,VWS V14.01,2013-09-20 18:21:00,
2013-09-20 14:26:00,94.6,60.2,29.71,NNW,338,4.3,4.3,32,0.00,,---,0.00,VWS V14.01,2013-09-20 18:26:00,
2013-09-20 14:31:00,94.8,58.6,29.71,NW,315,1.6,4.5,30,0.00,,---,0.00,VWS V14.01,2013-09-20 18:31:00,
2013-09-20 14:36:00,92.5,56.6,29.71,NE,45,2.7,4.0,30,0.00,,---,0.00,VWS V14.01,2013-09-20 18:36:00,
2013-09-20 14:41:00,93.0,58.8,29.71,NE,45,2.7,2.7,32,0.00,,---,0.00,VWS V14.01,2013-09-20 18:41:00,
2013-09-20 14:46:00,95.5,59.2,29.71,NE,45,4.7,6.3,30,0.00,,---,0.00,VWS V14.01,2013-09-20 18:46:00,
2013-09-20 14:51:00,95.2,58.9,29.71,NW,315,4.3,4.3,30,0.00,,---,0.00,VWS V14.01,2013-09-20 18:51:00,
2013-09-20 14:56:00,93.0,57.0,29.71,NW,315,2.0,2.0,30,0.00,,---,0.00,VWS V14.01,2013-09-20 18:56:00,
2013-09-20 15:01:00,91.4,55.6,29.71,ESE,112,2.9,2.9,30,0.00,,---,0.00,VWS V14.01,2013-09-20 19:01:00,
2013-09-20 15:06:00,94.1,58.0,29.71,NW,315,1.1,3.8,30,0.00,,---,0.00,VWS V14.01,2013-09-20 19:06:00,
2013-09-20 15:11:00,94.3,58.1,29.71,NE,45,2.7,2.7,30,0.00,,---,0.00,VWS V14.01,2013-09-20 19:11:00,
2013-09-20 15:16:00,95.9,59.5,29.71,North,0,3.8,3.8,30,0.00,,---,0.00,VWS V14.01,2013-09-20 19:16:00,
2013-09-20 15:21:00,93.4,57.3,29.71,NE,45,4.7,7.6,30,0.00,,---,0.00,VWS V14.01,2013-09-20 19:21:00,
2013-09-20 15:26:00,93.4,57.3,29.71,NE,45,4.3,4.3,30,0.00,,---,0.00,VWS V14.01,2013-09-20 19:26:00,
2013-09-20 15:31:00,94.6,59.3,29.71,NNE,22,2.5,2.5,31,0.00,,---,0.00,VWS V14.01,2013-09-20 19:31:00,
2013-09-20 15:36:00,95.0,57.8,29.71,NE,45,4.3,4.5,29,0.00,,---,0.00,VWS V14.01,2013-09-20 19:36:00,
2013-09-20 15:41:00,94.8,58.6,29.68,East,90,4.9,7.6,30,0.00,,---,0.00,VWS V14.01,2013-09-20 19:41:00,
2013-09-20 15:46:00,91.6,56.7,29.68,ENE,68,1.1,2.0,31,0.00,,---,0.00,VWS V14.01,2013-09-20 19:46:00,
2013-09-20 15:51:00,91.2,58.1,29.68,East,90,2.7,2.7,33,0.00,,---,0.00,VWS V14.01,2013-09-20 19:51:00,
2013-09-20 15:56:00,92.8,58.7,29.68,East,90,4.9,4.9,32,0.00,,---,0.00,VWS V14.01,2013-09-20 19:56:00,
2013-09-20 16:01:00,93.2,57.2,29.68,ENE,68,3.1,4.7,30,0.00,,---,0.00,VWS V14.01,2013-09-20 20:01:00,
2013-09-20 16:06:00,93.2,57.2,29.68,WNW,292,4.3,5.4,30,0.00,,---,0.00,VWS V14.01,2013-09-20 20:06:00,
2013-09-20 16:11:00,93.4,57.3,29.68,East,90,2.0,3.6,30,0.00,,---,0.00,VWS V14.01,2013-09-20 20:11:00,
2013-09-20 16:16:00,94.8,59.5,29.68,ENE,68,5.8,5.8,31,0.00,,---,0.00,VWS V14.01,2013-09-20 20:16:00,
2013-09-20 16:21:00,93.2,57.2,29.68,NE,45,4.0,5.8,30,0.00,,---,0.00,VWS V14.01,2013-09-20 20:21:00,
2013-09-20 16:26:00,91.8,57.7,29.68,NNE,22,5.8,5.8,32,0.00,,---,0.00,VWS V14.01,2013-09-20 20:26:00,
2013-09-20 16:31:00,91.8,57.7,29.68,East,90,4.9,4.9,32,0.00,,---,0.00,VWS V14.01,2013-09-20 20:31:00,
2013-09-20 16:36:00,92.7,59.4,29.68,ESE,112,5.4,5.4,33,0.00,,---,0.00,VWS V14.01,2013-09-20 20:36:00,
2013-09-20 16:41:00,93.7,59.5,29.68,SE,135,3.4,6.3,32,0.00,,---,0.00,VWS V14.01,2013-09-20 20:41:00,
2013-09-20 16:46:00,94.3,59.0,29.68,NE,45,2.0,2.0,31,0.00,,---,0.00,VWS V14.01,2013-09-20 20:46:00,
2013-09-20 16:51:00,94.1,58.9,29.68,NNW,338,3.1,3.1,31,0.00,,---,0.00,VWS V14.01,2013-09-20 20:51:00,
2013-09-20 16:56:00,93.9,57.8,29.68,East,90,3.8,3.8,30,0.00,,---,0.00,VWS V14.01,2013-09-20 20:56:00,
2013-09-20 17:01:00,90.5,55.8,29.68,NNE,22,1.3,2.5,31,0.00,,---,0.00,VWS V14.01,2013-09-20 21:01:00,
2013-09-20 17:06:00,88.9,56.1,29.68,NE,45,3.1,3.8,33,0.00,,---,0.00,VWS V14.01,2013-09-20 21:06:00,
2013-09-20 17:11:00,89.4,57.4,29.68,East,90,3.4,6.0,34,0.00,,---,0.00,VWS V14.01,2013-09-20 21:11:00,
2013-09-20 17:16:00,90.0,57.0,29.68,NE,45,2.7,2.7,33,0.00,,---,0.00,VWS V14.01,2013-09-20 21:16:00,
2013-09-20 17:21:00,90.3,58.2,29.68,ESE,112,6.0,6.0,34,0.00,,---,0.00,VWS V14.01,2013-09-20 21:21:00,
2013-09-20 17:26:00,90.3,57.3,29.68,East,90,3.4,4.7,33,0.00,,---,0.00,VWS V14.01,2013-09-20 21:26:00,
2013-09-20 17:31:00,89.8,57.7,29.68,North,0,7.6,7.6,34,0.00,,---,0.00,VWS V14.01,2013-09-20 21:31:00,
2013-09-20 17:37:00,88.9,57.7,29.68,East,90,2.9,6.3,35,0.00,,---,0.00,VWS V14.01,2013-09-20 21:37:00,
2013-09-20 17:42:00,87.4,58.0,29.68,North,0,4.3,8.5,37,0.00,,---,0.00,VWS V14.01,2013-09-20 21:42:00,
2013-09-20 17:47:00,86.7,58.1,29.68,East,90,0.9,2.9,38,0.00,,---,0.00,VWS V14.01,2013-09-20 21:47:00,
2013-09-20 17:52:00,86.4,58.5,29.68,East,90,7.4,7.4,39,0.00,,---,0.00,VWS V14.01,2013-09-20 21:52:00,
2013-09-20 17:57:00,86.0,58.9,29.68,ESE,112,3.6,3.6,40,0.00,,---,0.00,VWS V14.01,2013-09-20 21:57:00,
2013-09-20 18:02:00,85.5,58.4,29.68,North,0,2.9,2.9,40,0.00,,---,0.00,VWS V14.01,2013-09-20 22:02:00,
2013-09-20 18:07:00,84.7,57.8,29.68,ENE,68,3.6,3.6,40,0.00,,---,0.00,VWS V14.01,2013-09-20 22:07:00,
2013-09-20 18:12:00,84.4,58.1,29.68,ESE,112,2.9,6.7,41,0.00,,---,0.00,VWS V14.01,2013-09-20 22:12:00,
2013-09-20 18:17:00,84.2,58.0,29.68,NNW,338,2.5,4.0,41,0.00,,---,0.00,VWS V14.01,2013-09-20 22:17:00,
2013-09-20 18:22:00,84.0,58.5,29.68,NE,45,4.9,4.9,42,0.00,,---,0.00,VWS V14.01,2013-09-20 22:22:00,
2013-09-20 18:27:00,84.0,59.1,29.68,ENE,68,7.4,7.6,43,0.00,,---,0.00,VWS V14.01,2013-09-20 22:27:00,
2013-09-20 18:32:00,83.7,58.8,29.68,East,90,2.7,5.8,43,0.00,,---,0.00,VWS V14.01,2013-09-20 22:32:00,
2013-09-20 18:37:00,83.3,58.5,29.68,East,90,2.5,3.4,43,0.00,,---,0.00,VWS V14.01,2013-09-20 22:37:00,
2013-09-20 18:42:00,82.8,58.7,29.68,NNE,22,2.2,4.7,44,0.00,,---,0.00,VWS V14.01,2013-09-20 22:42:00,
2013-09-20 18:47:00,82.4,58.3,29.68,East,90,2.5,4.9,44,0.00,,---,0.00,VWS V14.01,2013-09-20 22:47:00,
2013-09-20 18:52:00,81.9,58.5,29.68,East,90,4.5,7.6,45,0.00,,---,0.00,VWS V14.01,2013-09-20 22:52:00,
2013-09-20 18:57:00,81.5,58.1,29.68,East,90,2.9,2.9,45,0.00,,---,0.00,VWS V14.01,2013-09-20 22:57:00,
2013-09-20 19:02:00,81.1,57.8,29.68,NE,45,2.5,2.9,45,0.00,,---,0.00,VWS V14.01,2013-09-20 23:02:00,
2013-09-20 19:07:00,81.0,58.3,29.68,East,90,2.0,3.1,46,0.00,,---,0.00,VWS V14.01,2013-09-20 23:07:00,
2013-09-20 19:12:00,80.8,58.7,29.68,ESE,112,2.7,3.1,47,0.00,,---,0.00,VWS V14.01,2013-09-20 23:12:00,
2013-09-20 19:17:00,80.4,59.0,29.68,North,0,1.6,5.6,48,0.00,,---,0.00,VWS V14.01,2013-09-20 23:17:00,
2013-09-20 19:22:00,80.2,59.4,29.68,NNE,22,4.0,4.0,49,0.00,,---,0.00,VWS V14.01,2013-09-20 23:22:00,
2013-09-20 19:27:00,80.1,59.8,29.68,East,90,2.9,4.7,50,0.00,,---,0.00,VWS V14.01,2013-09-20 23:27:00,
2013-09-20 19:32:00,79.7,60.0,29.68,NE,45,1.6,2.5,51,0.00,,---,0.00,VWS V14.01,2013-09-20 23:32:00,
2013-09-20 19:37:00,79.5,60.9,29.68,ESE,112,2.5,6.0,53,0.00,,---,0.00,VWS V14.01,2013-09-20 23:37:00,
2013-09-20 19:42:00,79.3,60.2,29.68,East,90,2.9,2.9,52,0.00,,---,0.00,VWS V14.01,2013-09-20 23:42:00,
2013-09-20 19:47:00,79.3,60.2,29.68,NE,45,2.2,4.9,52,0.00,,---,0.00,VWS V14.01,2013-09-20 23:47:00,
2013-09-20 19:52:00,78.8,59.7,29.68,ENE,68,3.6,4.7,52,0.00,,---,0.00,VWS V14.01,2013-09-20 23:52:00,
2013-09-20 19:57:00,78.8,60.2,29.68,East,90,2.0,3.8,53,0.00,,---,0.00,VWS V14.01,2013-09-20 23:57:00,
2013-09-20 20:02:00,78.6,60.1,29.68,NW,315,1.3,4.0,53,0.00,,---,0.00,VWS V14.01,2013-09-21 00:02:00,
2013-09-20 20:07:00,78.4,59.9,29.68,ENE,68,2.2,2.2,53,0.00,,---,0.00,VWS V14.01,2013-09-21 00:07:00,
2013-09-20 20:12:00,78.3,59.7,29.68,NE,45,2.7,2.7,53,0.00,,---,0.00,VWS V14.01,2013-09-21 00:12:00,
2013-09-20 20:17:00,77.9,59.9,29.68,ENE,68,1.3,2.5,54,0.00,,---,0.00,VWS V14.01,2013-09-21 00:17:00,
2013-09-20 20:22:00,77.9,59.9,29.68,East,90,2.7,3.1,54,0.00,,---,0.00,VWS V14.01,2013-09-21 00:22:00,
2013-09-20 20:27:00,77.7,60.3,29.68,NNW,338,3.1,3.4,55,0.00,,---,0.00,VWS V14.01,2013-09-21 00:27:00,
2013-09-20 20:32:00,77.7,60.3,29.68,ENE,68,0.9,2.2,55,0.00,,---,0.00,VWS V14.01,2013-09-21 00:32:00,
2013-09-20 20:37:00,77.2,60.3,29.68,ESE,112,3.1,4.0,56,0.00,,---,0.00,VWS V14.01,2013-09-21 00:37:00,
2013-09-20 20:42:00,77.0,60.1,29.68,East,90,2.0,3.1,56,0.00,,---,0.00,VWS V14.01,2013-09-21 00:42:00,
2013-09-20 20:47:00,76.8,60.5,29.68,East,90,1.3,2.5,57,0.00,,---,0.00,VWS V14.01,2013-09-21 00:47:00,
2013-09-20 20:52:00,76.8,60.5,29.68,East,90,1.6,2.0,57,0.00,,---,0.00,VWS V14.01,2013-09-21 00:52:00,
2013-09-20 20:57:00,76.5,60.6,29.68,East,90,2.5,2.5,58,0.00,,---,0.00,VWS V14.01,2013-09-21 00:57:00,
2013-09-20 21:02:00,76.1,60.8,29.68,ENE,68,2.5,2.9,59,0.00,,---,0.00,VWS V14.01,2013-09-21 01:02:00,
2013-09-20 21:07:00,76.1,61.2,29.68,East,90,3.8,3.8,60,0.00,,---,0.00,VWS V14.01,2013-09-21 01:07:00,
2013-09-20 21:12:00,75.9,61.0,29.71,NE,45,2.5,2.9,60,0.00,,---,0.00,VWS V14.01,2013-09-21 01:12:00,
2013-09-20 21:17:00,75.7,61.3,29.71,ENE,68,2.7,2.9,61,0.00,,---,0.00,VWS V14.01,2013-09-21 01:17:00,
2013-09-20 21:22:00,75.7,61.3,29.71,NE,45,1.3,3.1,61,0.00,,---,0.00,VWS V14.01,2013-09-21 01:22:00,
2013-09-20 21:27:00,75.7,61.8,29.68,East,90,1.6,1.6,62,0.00,,---,0.00,VWS V14.01,2013-09-21 01:27:00,
2013-09-20 21:32:00,75.7,61.8,29.68,ENE,68,2.2,2.2,62,0.00,,---,0.00,VWS V14.01,2013-09-21 01:32:00,
2013-09-20 21:37:00,75.6,62.1,29.68,ENE,68,0.0,1.3,63,0.00,,---,0.00,VWS V14.01,2013-09-21 01:37:00,
2013-09-20 21:42:00,75.6,62.5,29.71,NNE,22,0.9,2.0,64,0.00,,---,0.00,VWS V14.01,2013-09-21 01:42:00,
2013-09-20 21:47:00,75.4,62.4,29.71,ENE,68,1.6,1.6,64,0.00,,---,0.00,VWS V14.01,2013-09-21 01:47:00,
2013-09-20 21:52:00,75.2,62.2,29.71,East,90,1.1,3.6,64,0.00,,---,0.00,VWS V14.01,2013-09-21 01:52:00,
2013-09-20 21:57:00,74.8,62.3,29.71,ENE,68,2.0,2.0,65,0.00,,---,0.00,VWS V14.01,2013-09-21 01:57:00,
2013-09-20 22:02:00,74.8,62.3,29.71,NE,45,0.9,2.5,65,0.00,,---,0.00,VWS V14.01,2013-09-21 02:02:00,
2013-09-20 22:07:00,74.7,62.6,29.71,NE,45,1.1,1.3,66,0.00,,---,0.00,VWS V14.01,2013-09-21 02:07:00,
2013-09-20 22:12:00,74.5,62.4,29.71,East,90,0.9,1.1,66,0.00,,---,0.00,VWS V14.01,2013-09-21 02:12:00,
2013-09-20 22:17:00,74.5,62.8,29.71,NE,45,0.0,0.9,67,0.00,,---,0.00,VWS V14.01,2013-09-21 02:17:00,
2013-09-20 22:22:00,74.5,62.8,29.71,NE,45,0.9,2.5,67,0.00,,---,0.00,VWS V14.01,2013-09-21 02:22:00,
2013-09-20 22:27:00,74.5,62.8,29.71,East,90,1.6,2.7,67,0.00,,---,0.00,VWS V14.01,2013-09-21 02:27:00,
2013-09-20 22:32:00,74.3,62.6,29.71,ENE,68,0.0,1.3,67,0.00,,---,0.00,VWS V14.01,2013-09-21 02:32:00,
2013-09-20 22:37:00,74.1,62.9,29.71,ENE,68,1.6,2.2,68,0.00,,---,0.00,VWS V14.01,2013-09-21 02:37:00,
2013-09-20 22:42:00,73.9,62.7,29.71,NE,45,0.0,0.0,68,0.00,,---,0.00,VWS V14.01,2013-09-21 02:42:00,
2013-09-20 22:47:00,73.8,62.5,29.71,NE,45,0.0,1.1,68,0.00,,---,0.00,VWS V14.01,2013-09-21 02:47:00,
2013-09-20 22:52:00,73.8,62.5,29.71,ENE,68,0.0,1.6,68,0.00,,---,0.00,VWS V14.01,2013-09-21 02:52:00,
2013-09-20 22:57:00,73.6,62.8,29.71,ENE,68,0.0,0.0,69,0.00,,---,0.00,VWS V14.01,2013-09-21 02:57:00,
2013-09-20 23:02:00,73.4,62.6,29.71,ENE,68,0.0,0.0,69,0.00,,---,0.00,VWS V14.01,2013-09-21 03:02:00,
2013-09-20 23:07:00,73.0,62.7,29.71,ENE,68,0.0,0.0,70,0.00,,---,0.00,VWS V14.01,2013-09-21 03:07:00,
2013-09-20 23:12:00,73.0,62.7,29.71,ENE,68,0.0,0.9,70,0.00,,---,0.00,VWS V14.01,2013-09-21 03:12:00,
2013-09-20 23:17:00,72.9,62.9,29.71,ENE,68,0.0,0.0,71,0.00,,---,0.00,VWS V14.01,2013-09-21 03:17:00,
2013-09-20 23:22:00,72.7,62.7,29.71,ENE,68,0.0,0.0,71,0.00,,---,0.00,VWS V14.01,2013-09-21 03:22:00,
2013-09-20 23:27:00,72.7,62.7,29.71,NE,45,0.0,1.1,71,0.00,,---,0.00,VWS V14.01,2013-09-21 03:27:00,
2013-09-20 23:32:00,72.7,63.1,29.71,NE,45,0.0,0.0,72,0.00,,---,0.00,VWS V14.01,2013-09-21 03:32:00,
2013-09-20 23:37:00,72.5,63.0,29.71,NE,45,0.0,0.0,72,0.00,,---,0.00,VWS V14.01,2013-09-21 03:37:00,
2013-09-20 23:42:00,72.5,63.4,29.71,NE,45,0.0,0.0,73,0.00,,---,0.00,VWS V14.01,2013-09-21 03:42:00,
2013-09-20 23:47:00,72.3,63.2,29.71,NE,45,0.0,0.0,73,0.00,,---,0.00,VWS V14.01,2013-09-21 03:47:00,
2013-09-20 23:52:00,72.1,63.4,29.71,ENE,68,0.0,2.0,74,0.00,,---,0.00,VWS V14.01,2013-09-21 03:52:00,
2013-09-20 23:57:00,72.1,63.4,29.71,ENE,68,0.0,0.0,74,0.00,,---,0.00,VWS V14.01,2013-09-21 03:57:00,